Wind_Speed
41 40 40 41 42 43 45 46 47 47 48 49 50 51 51 51 51 51 50 51 51 51 52 53 53 53 51 49 47 46 46 44 43 42 40 40 40 40 40 39 37 36 33
41 41 42 43 44 45 46 48 49 49 50 51 51 52 52 52 52 52 52 52 53 53 53 54 55 56 56 55 53 51 49 48 46 44 42 41 42 41 41 41 39 38 36
42 42 43 44 46 47 48 50 50 50 51 51 51 52 52 52 53 53 53 54 54 54 54 54 55 57 58 58 57 56 54 51 49 48 45 43 43 42 42 42 41 39 37
43 43 44 45 47 48 50 51 51 51 50 51 51 50 51 52 53 53 53 54 54 54 54 55 55 57 59 60 60 59 59 56 53 51 49 47 46 44 43 42 42 41 39
43 44 45 46 48 49 50 50 50 50 49 49 49 49 50 51 52 52 53 53 53 54 54 54 55 56 57 58 59 60 60 58 57 56 52 49 48 46 44 43 42 41 40
44 44 46 47 48 48 49 49 49 49 48 48 47 47 47 47 47 48 49 50 50 51 52 53 54 55 56 57 58 59 59 59 58 57 56 54 52 49 46 44 43 42 41
44 45 46 47 48 49 50 49 49 47 47 46 44 43 42 41 42 43 44 45 46 47 48 50 52 53 55 55 56 57 57 58 58 58 57 55 54 52 49 45 44 42 41
45 46 46 47 48 49 49 47 45 44 43 41 39 37 36 35 36 37 39 41 42 44 45 45 47 49 51 52 54 54 55 56 58 58 58 56 55 54 53 49 45 43 41
45 45 46 47 48 48 46 43 42 41 39 36 33 32 30 30 30 31 33 35 37 39 41 42 42 44 46 48 49 50 52 53 55 55 56 57 55 54 52 52 49 44 43
45 45 46 47 47 45 43 41 39 37 34 31 28 26 25 24 24 26 28 31 32 35 37 39 39 39 41 43 44 46 47 48 49 51 52 52 54 54 52 50 49 45 43
45 45 45 46 44 42 41 39 36 34 31 27 25 23 20 19 19 20 23 25 28 32 34 36 37 37 38 38 39 40 41 43 45 46 47 47 50 51 51 50 49 46 43
44 44 45 44 42 40 39 36 34 32 29 26 22 20 17 16 15 16 18 22 25 28 31 33 34 34 35 35 35 35 36 36 38 40 43 44 45 47 47 48 48 47 43
44 43 43 42 40 39 38 35 32 30 27 24 21 18 16 13 12 12 14 19 23 26 28 30 31 31 31 31 31 32 33 33 33 34 36 39 42 44 45 45 47 47 45
43 42 41 40 38 37 36 33 31 29 26 23 19 16 13 10 8 9 11 15 20 24 26 28 28 28 28 28 29 30 29 30 31 32 34 36 39 41 42 42 44 45 44
42 42 40 38 37 36 34 32 31 28 25 22 18 15 11 7 5 6 7 11 17 22 25 26 26 26 25 26 27 28 28 28 28 29 31 33 36 39 40 41 42 43 42
40 40 39 37 36 34 33 31 30 28 25 22 19 15 11 6 2 3 7 10 14 19 21 23 23 23 24 24 25 26 26 26 27 28 29 31 33 37 40 41 42 42 41
39 39 38 36 35 32 31 29 28 26 25 22 19 16 12 7 3 4 7 10 14 16 18 20 21 21 22 23 24 25 25 25 26 27 28 31 33 36 39 40 42 42 41
37 38 37 35 34 31 29 27 26 25 23 21 19 15 11 9 6 6 7 10 13 15 16 18 19 19 20 21 22 23 23 24 24 26 28 31 33 35 38 40 42 42 40
35 36 36 34 32 30 28 25 24 22 21 20 18 15 11 8 6 6 7 9 12 13 14 15 16 17 18 19 20 22 23 23 24 26 28 31 33 35 38 40 41 40 39
34 34 34 33 31 29 27 25 23 21 19 18 16 14 12 9 7 5 5 7 9 10 11 13 15 16 18 18 20 21 22 23 23 25 28 31 33 34 37 39 38 37 37
32 32 32 31 29 28 27 25 23 21 18 16 14 13 11 9 7 5 3 4 7 9 10 11 13 14 16 17 18 20 21 22 24 25 29 31 33 34 37 38 37 36 35
29 29 30 29 28 27 26 24 23 21 18 16 13 11 10 10 8 6 3 2 3 6 8 9 10 12 13 14 15 17 19 21 24 28 31 32 33 34 35 36 35 35 33
27 27 27 26 26 25 25 24 22 21 19 16 14 12 11 10 10 8 6 5 5 5 6 8 8 10 11 13 14 16 20 24 26 30 31 32 33 34 34 33 33 33 31
25 25 25 24 24 23 23 22 21 20 19 17 15 14 13 11 11 11 10 8 8 8 8 9 10 12 14 14 16 19 22 26 28 29 29 31 32 32 31 31 31 30 28
23 22 22 22 21 21 20 20 19 18 17 17 17 16 15 14 14 13 13 13 14 14 14 15 16 17 17 17 19 22 24 26 26 26 27 27 28 29 29 29 28 27 26
20 19 19 18 18 18 18 18 17 17 16 16 16 16 16 16 16 16 16 16 17 18 18 19 19 20 20 20 22 22 23 25 25 25 24 24 25 26 26 26 25 24 24
Wind_Direction
309 306 304 302 299 297 296 295 293 290 287 284 282 279 277 273 270 266 262 259 256 253 250 247 245 243 241 240 236 233 231 230 228 229 230 229 228 227 226 226 227 227 229
310 307 305 303 301 300 298 296 294 291 288 285 281 278 274 271 268 265 261 258 255 252 250 247 244 242 241 240 238 237 234 231 229 229 229 229 230 228 228 227 227 227 229
311 309 307 305 304 303 301 299 296 293 289 285 281 277 273 270 266 263 260 257 254 251 249 247 244 242 240 240 239 238 236 233 230 230 229 229 230 230 230 229 229 228 228
314 311 309 308 308 306 305 302 299 295 291 287 282 277 273 269 266 262 258 256 253 250 247 245 243 241 240 240 239 238 237 235 233 231 230 231 231 232 232 231 231 231 230
316 314 312 311 311 310 308 305 302 297 293 289 285 279 275 271 266 261 257 254 251 249 246 243 242 240 239 238 238 238 237 235 234 232 232 231 231 231 231 231 231 232 232
318 317 316 315 315 314 312 309 305 300 296 292 288 283 277 273 267 261 256 251 249 247 244 241 239 238 237 236 236 237 237 235 234 233 233 232 232 232 232 232 231 232 232
322 321 320 320 319 318 316 312 308 304 300 296 292 286 280 273 265 259 254 249 246 243 241 239 238 236 235 235 236 236 236 236 235 234 233 233 233 232 232 233 232 232 233
325 324 324 324 322 321 320 317 313 309 306 301 295 288 281 273 265 259 252 247 244 240 238 237 236 234 234 234 234 236 236 235 236 235 235 234 233 232 233 232 233 234 234
328 327 327 327 326 325 324 322 319 315 312 306 299 292 284 274 267 259 251 245 239 236 234 232 232 231 231 232 233 234 235 235 235 236 235 234 233 232 232 233 234 235 235
330 330 330 330 330 330 329 327 325 322 317 312 306 299 289 277 268 257 250 241 234 231 229 228 227 227 229 229 230 232 233 233 233 233 233 233 234 234 234 233 233 233 232
333 333 333 334 334 334 333 332 331 329 325 319 313 306 295 282 271 259 247 235 229 225 223 223 223 223 225 226 228 229 231 232 232 231 231 231 232 233 232 231 232 233 231
336 336 336 337 337 338 338 337 335 334 332 328 322 315 304 290 274 259 244 232 224 220 218 217 217 218 220 223 225 225 227 228 229 230 230 229 229 230 230 230 230 231 230
339 339 339 340 341 341 343 343 341 339 337 334 328 319 312 297 275 256 241 229 221 216 213 212 212 213 216 219 220 221 223 225 225 226 227 228 226 226 227 227 227 228 230
342 342 342 343 344 345 346 347 346 345 343 341 337 328 317 302 276 252 235 224 214 209 207 207 207 208 210 213 214 214 216 220 221 221 221 223 223 221 219 220 222 225 226
344 345 345 346 347 347 349 350 350 351 350 350 347 342 335 320 280 245 224 206 200 200 200 201 202 203 205 206 207 208 211 215 216 216 217 219 218 216 214 213 215 218 220
345 347 348 348 349 349 351 353 355 357 359 360 0 359 356 346 308 207 193 185 185 187 189 192 195 199 200 201 204 207 210 213 213 214 215 215 214 211 209 209 209 211 213
346 349 350 350 352 352 353 356 359 1 4 5 8 12 19 30 67 140 163 170 174 179 184 188 192 197 200 203 206 208 211 213 214 215 214 211 209 206 205 204 205 205 207
347 349 352 353 355 355 356 359 1 4 7 10 12 17 27 43 73 110 140 159 169 176 183 188 193 199 202 205 208 211 213 215 217 218 215 210 205 202 201 201 201 200 202
347 350 352 355 357 358 359 -0 2 5 9 12 17 23 31 43 65 105 138 155 167 176 184 190 195 201 205 209 213 216 217 218 220 218 214 209 204 200 197 198 198 198 199
348 350 353 356 359 0 2 3 3 5 9 15 20 26 35 44 57 88 128 159 174 183 192 199 205 211 215 218 218 218 219 219 217 214 208 204 200 197 194 194 195 196 198
348 350 353 357 0 2 3 4 7 7 8 11 17 23 33 41 53 74 118 166 186 195 201 210 216 219 219 220 218 217 215 210 206 203 199 195 192 191 191 191 193 193 194
348 350 353 357 360 3 4 6 10 12 14 15 19 23 31 36 43 51 61 125 187 204 208 212 213 210 208 205 204 201 198 193 190 188 184 183 184 185 185 186 188 189 191
347 350 353 357 359 2 5 8 12 17 20 24 27 31 37 42 52 57 63 80 102 131 159 171 174 172 172 172 172 173 174 174 174 173 175 177 178 178 180 182 183 185 188
345 349 353 357 360 2 5 9 15 19 25 31 36 40 47 53 57 64 72 82 94 108 119 130 139 144 147 151 154 156 160 161 160 161 165 168 172 175 177 179 181 182 186
343 347 352 357 1 5 9 13 18 24 31 37 44 50 55 58 63 70 77 84 92 99 104 111 118 124 130 138 145 149 152 156 160 160 160 162 165 168 169 172 176 181 185
339 342 348 356 2 7 12 18 24 30 39 45 49 53 59 62 66 75 83 89 93 97 100 104 110 116 122 131 135 136 140 147 151 153 155 158 160 163 167 171 176 182 184
Height
5734 5729 5724 5719 5715 5710 5706 5702 5698 5694 5690 5687 5684 5682 5681 5681 5682 5684 5686 5688 5692 5696 5701 5706 5712 5718 5724 5730 5736 5742 5748 5754 5760 5765 5770 5777 5782 5788 5793 5799 5804 5809 5813
5724 5719 5714 5708 5703 5698 5693 5688 5683 5678 5674 5670 5667 5665 5664 5664 5665 5666 5669 5672 5675 5680 5685 5690 5696 5703 5710 5716 5723 5730 5736 5743 5750 5755 5761 5767 5772 5777 5783 5789 5795 5801 5805
5715 5709 5703 5696 5690 5684 5678 5672 5666 5661 5657 5653 5650 5647 5646 5645 5646 5648 5650 5654 5658 5663 5668 5674 5680 5686 5693 5701 5708 5716 5723 5730 5737 5744 5751 5756 5762 5767 5774 5780 5786 5792 5797
5705 5698 5691 5684 5677 5670 5663 5656 5649 5643 5638 5634 5631 5629 5627 5627 5627 5629 5631 5635 5639 5645 5650 5657 5663 5670 5677 5684 5692 5700 5708 5716 5724 5732 5739 5746 5752 5758 5764 5770 5777 5783 5788
5695 5687 5680 5672 5665 5656 5648 5640 5633 5626 5620 5615 5612 5609 5608 5607 5607 5609 5612 5616 5621 5626 5633 5639 5646 5653 5661 5668 5676 5685 5693 5702 5710 5719 5727 5734 5741 5747 5754 5760 5767 5773 5779
5685 5677 5669 5660 5652 5643 5634 5625 5617 5609 5603 5598 5593 5590 5588 5587 5588 5590 5593 5597 5603 5609 5615 5622 5629 5637 5645 5653 5661 5669 5678 5687 5696 5705 5714 5722 5729 5737 5743 5750 5757 5763 5770
5675 5666 5658 5649 5640 5630 5620 5610 5602 5593 5587 5581 5576 5572 5571 5570 5570 5572 5575 5580 5586 5593 5600 5606 5613 5622 5630 5639 5647 5655 5664 5672 5682 5692 5701 5709 5717 5725 5733 5740 5747 5753 5761
5665 5656 5647 5638 5628 5618 5607 5597 5588 5580 5572 5566 5561 5557 5555 5555 5555 5557 5560 5565 5571 5578 5585 5592 5599 5607 5616 5625 5633 5641 5649 5658 5668 5678 5688 5696 5703 5712 5721 5729 5736 5744 5751
5657 5648 5638 5628 5618 5607 5597 5587 5577 5568 5561 5554 5549 5545 5543 5543 5543 5545 5548 5553 5559 5566 5572 5580 5587 5595 5603 5612 5621 5630 5638 5645 5653 5664 5673 5682 5690 5699 5709 5717 5726 5734 5741
5649 5640 5630 5619 5609 5598 5588 5578 5568 5559 5551 5545 5540 5536 5534 5533 5533 5535 5537 5542 5548 5555 5562 5569 5577 5584 5592 5600 5609 5618 5625 5633 5642 5651 5660 5669 5679 5687 5697 5706 5715 5723 5731
5642 5632 5622 5612 5601 5591 5581 5571 5561 5553 5545 5539 5534 5530 5527 5526 5526 5527 5529 5533 5539 5545 5552 5560 5567 5575 5583 5592 5600 5608 5615 5622 5631 5639 5648 5657 5666 5676 5685 5695 5704 5714 5722
5636 5626 5616 5605 5595 5585 5576 5566 5556 5548 5541 5534 5529 5525 5522 5521 5520 5521 5523 5527 5532 5538 5544 5552 5560 5568 5576 5584 5592 5599 5606 5614 5622 5630 5638 5646 5656 5665 5675 5684 5693 5703 5712
5631 5621 5611 5601 5590 5581 5571 5562 5553 5545 5538 5531 5526 5522 5519 5517 5517 5517 5519 5522 5526 5532 5539 5546 5554 5562 5569 5577 5585 5592 5599 5607 5614 5621 5629 5637 5645 5654 5664 5673 5682 5692 5702
5626 5616 5607 5597 5587 5578 5568 5559 5551 5543 5535 5529 5524 5519 5517 5515 5514 5515 5516 5518 5523 5528 5535 5542 5550 5557 5565 5572 5579 5586 5593 5600 5607 5614 5621 5628 5636 5644 5653 5663 5672 5682 5692
5623 5613 5603 5594 5585 5576 5567 5558 5550 5542 5534 5528 5523 5518 5515 5514 5513 5514 5515 5517 5521 5526 5533 5540 5547 5554 5561 5568 5575 5581 5588 5594 5601 5607 5613 5620 5627 5635 5644 5654 5663 5673 5683
5620 5611 5601 5592 5583 5574 5566 5558 5550 5542 5535 5529 5524 5519 5516 5514 5513 5514 5515 5518 5522 5526 5532 5539 5545 5552 5558 5565 5571 5577 5583 5589 5595 5600 5607 5613 5620 5628 5637 5646 5655 5665 5675
5618 5609 5600 5591 5582 5574 5566 5558 5551 5544 5537 5532 5527 5522 5519 5516 5516 5516 5518 5520 5524 5529 5534 5539 5545 5550 5556 5561 5567 5573 5578 5584 5589 5594 5600 5606 5613 5621 5629 5638 5647 5657 5667
5616 5607 5599 5590 5582 5574 5566 5559 5553 5546 5540 5535 5530 5526 5523 5521 5520 5520 5521 5523 5527 5530 5535 5539 5544 5549 5554 5559 5564 5569 5574 5579 5584 5589 5594 5600 5607 5614 5623 5632 5641 5651 5660
5615 5607 5598 5590 5582 5574 5567 5561 5554 5549 5543 5538 5534 5530 5527 5525 5524 5524 5525 5527 5529 5532 5536 5539 5543 5547 5551 5556 5560 5564 5569 5573 5578 5583 5588 5595 5601 5609 5618 5627 5636 5645 5655
5614 5606 5598 5590 5583 5576 5569 5562 5556 5551 5546 5541 5537 5534 5531 5529 5528 5527 5528 5529 5531 5534 5537 5539 5542 5546 5549 5552 5556 5560 5563 5568 5572 5577 5583 5590 5598 5606 5614 5624 5633 5642 5650
5613 5606 5599 5591 5584 5577 5571 5564 5558 5553 5548 5544 5541 5538 5535 5533 5532 5531 5531 5532 5533 5535 5537 5539 5541 5543 5546 5548 5551 5555 5558 5563 5568 5574 5580 5587 5595 5603 5612 5621 5629 5638 5647
5612 5606 5599 5593 5586 5580 5573 5567 5561 5556 5551 5547 5544 5541 5539 5537 5535 5534 5534 5534 5534 5535 5536 5538 5540 5542 5544 5546 5549 5552 5556 5560 5565 5572 5578 5586 5595 5603 5611 5619 5628 5636 5645
5612 5606 5600 5594 5588 5582 5576 5570 5565 5560 5555 5551 5547 5545 5542 5540 5539 5538 5537 5536 5536 5537 5538 5539 5540 5542 5544 5547 5549 5552 5556 5562 5567 5574 5581 5588 5596 5604 5612 5619 5627 5636 5643
5612 5606 5601 5595 5590 5584 5579 5573 5568 5564 5559 5555 5552 5549 5547 5545 5543 5542 5541 5540 5540 5540 5541 5542 5543 5545 5547 5550 5553 5556 5560 5566 5571 5578 5584 5592 5599 5606 5613 5621 5628 5635 5642
5611 5607 5602 5597 5592 5587 5582 5577 5572 5568 5564 5560 5558 5555 5552 5550 5549 5547 5546 5546 5546 5546 5546 5547 5548 5550 5552 5555 5559 5563 5567 5572 5578 5584 5589 5595 5602 5608 5615 5622 5629 5635 5641
5610 5606 5602 5598 5594 5590 5585 5581 5577 5573 5570 5567 5564 5561 5559 5557 5556 5554 5554 5553 5553 5553 5554 5555 5556 5558 5561 5563 5567 5570 5574 5579 5584 5589 5595 5600 5606 5612 5618 5624 5629 5635 5640